Volver al catálogo

DELTA 4 R/B

ActivoMEO
NORAD 39534·ROCKET BODY·🇺🇸 United States

Lanzado Feb 21, 2014 desde Cape Canaveral Space Force Station

Loading…

Próximos Pases (próximas 24 horas)

TLE

ActualizadoSource: Space-Track

Época: Sep 11, 2026, 09:18 UTC

1 39534U 14008B   26254.38779508 -.00000001  00000-0  00000+0 0  9994
2 39534  53.0473 163.1325 0203381 111.6488 250.5625  1.90803696 87502

Sigue DELTA 4 R/B en tiempo real con AllMySat

Download on the App Store